Weather in Mardan

Pakistan     34°11′27″N   72°03′00″E
temp.,
°C
wind,
m/s
gust,
m/s
humid.,
%
clouds,
%
prec.,
mm/h
press.,
hPa
HPBL,
m
27 october, wed
wed2723:00+18ne11505 0.0 101611
02:00+17nne11520 0.0 101611
05:00+16nne12510 0.0 101711
08:00+18nne12470 0.0 101976
11:00+23w22320 0.0 1018576
14:00+26w22290 0.0 1015918
17:00+23e01380 0.0 101414
20:00+20nne22410 0.0 101611
28 october, thu
thu2823:00+18ne22440 0.0 101611
02:00+17ne22435 0.0 101511
05:00+16nne11420 0.0 101511
08:00+18nne11390 0.0 101759
11:00+24w11280 0.0 1017473
14:00+26ssw11240 0.0 1015824
17:00+23ene11337 0.0 101512
20:00+20ne22360 0.0 101611
29 october, fri
fri2923:00+18ne22420 0.0 101711
02:00+17nne11450 0.0 101711
05:00+16n11470 0.0 101711
08:00+18nne11420 0.0 101957
11:00+24wsw11290 0.0 1019509
14:00+27wsw11240 0.0 1016848
17:00+23nne11320 0.0 101613
20:00+20nne22360 0.0 101811
30 october, sat
sat3023:00+19nne22430 0.0 101911
02:00+17nne12430 0.0 101811
05:00+16nne22380 0.0 101811
08:00+18n12350 0.0 101960
11:00+25wnw22240 0.0 1018519
14:00+28w23210 0.0 1014830
17:00+25nw11290 0.0 101311
20:00+21nne22320 0.0 101411
31 october, sun
sun3123:00+19ne22360 0.0 101411
02:00+18nne22360 0.0 101311
05:00+16n22280 0.0 101311
08:00+18n12280 0.0 101463
11:00+25w22180 0.0 1013498
14:00+28wsw121664 0.0 1010753
17:00+24ese22243 0.0 101011
20:00+20ene33270 0.0 101121